Miles City, MT

5:28 AM MDT on August 23, 2017 (GMT -0600)
Wiley

Weather History for KMLS - November, 2012

Change the Weather History Date:

Friday, November 16, 2012

  Actual Average Record
Temperature  
Mean Temperature 35 °F 32 °F  
Max Temperature 42 °F 43 °F 66 °F (1999)
Min Temperature 27 °F 21 °F -18 °F (1959)
Degree Days  
Heating Degree Days 30 33  
Month to date heating degree days 477 468  
Since 1 July heating degree days 1197 1279  
Cooling Degree Days 0 0  
Month to date cooling degree days 0 0  
Year to date cooling degree days 1107 730  
Moisture  
Dew Point 27 °F    
Average Humidity 73    
Maximum Humidity 85    
Minimum Humidity 60    
Precipitation  
Precipitation 0.00 in 0.01 in 0.40 in (2010)
Month to date precipitation 0.26 0.24  
Year to date precipitation 5.95 12.00  
Sea Level Pressure  
Sea Level Pressure 30.04 in    
Wind  
Wind Speed 7 mph (SSE)    
Max Wind Speed 13 mph    
Max Gust Speed 14 mph    
Visibility 10 miles    
Events      
T = Trace of Precipitation, MM = Missing Value Source: NWS Daily Summary

Daily Weather History Graph

Daily Weather History Graph

Search for Another Location

Airport or City:

Trip Planner

Search our weather history database for the weather conditions in past years. The results will help you decide how hot, cold, wet, or windy it might be!

Date:

Astronomy

Nov. 16, 2012 Rise Set
Actual Time 7:07 AM MST 4:28 PM MST
Civil Twilight 6:34 AM MST 5:01 PM MST
Nautical Twilight 5:57 AM MST 5:38 PM MST
Astronomical Twilight 5:22 AM MST 6:14 PM MST
Moon 10:07 AM MST (11/16) 7:29 PM MST (11/16)
Length of Visible Light 10h 27m
Length of Day
9h 21m
Waxing Crescent, 12% of the Moon is Illuminated
Nov 16
Waxing Crescent
Nov 20
First Quarter
Nov 28
Full
Dec 6
Last Quarter
Dec 13
New

Hourly Weather History & Observations

Time (MST) Temp. Windchill Dew Point Humidity Pressure Visibility Wind Dir Wind Speed Gust Speed Precip Events Conditions
12:53 AM 32.0 °F 23.0 °F 26.1 °F 79% 30.11 in 10.0 mi SSE 11.5 mph - N/A   Clear
1:53 AM 30.9 °F 21.7 °F 26.1 °F 82% 30.08 in 10.0 mi SSE 11.5 mph - N/A   Clear
2:53 AM 30.0 °F 21.7 °F 25.0 °F 82% 30.08 in 10.0 mi SSE 9.2 mph - N/A   Clear
3:53 AM 30.0 °F 22.4 °F 25.0 °F 82% 30.06 in 10.0 mi SSE 8.1 mph - N/A   Clear
4:53 AM 28.9 °F 21.1 °F 25.0 °F 85% 30.07 in 10.0 mi SSE 8.1 mph - N/A   Clear
5:53 AM 28.9 °F 20.4 °F 24.1 °F 82% 30.06 in 10.0 mi SE 9.2 mph - N/A   Clear
6:53 AM 27.0 °F 16.7 °F 23.0 °F 85% 30.05 in 10.0 mi SSE 11.5 mph - N/A   Clear
7:53 AM 28.0 °F 18.6 °F 24.1 °F 85% 30.06 in 10.0 mi SSE 10.4 mph - N/A   Clear
8:53 AM 32.0 °F 23.6 °F 25.0 °F 75% 30.04 in 10.0 mi SSE 10.4 mph - N/A   Clear
9:53 AM 34.0 °F 28.0 °F 27.0 °F 75% 30.04 in 10.0 mi SSE 6.9 mph - N/A   Clear
10:53 AM 36.0 °F 33.3 °F 27.0 °F 70% 30.05 in 10.0 mi SE 3.5 mph - N/A   Clear
11:53 AM 36.0 °F 30.3 °F 27.0 °F 70% 30.03 in 10.0 mi SE 6.9 mph - N/A   Clear
12:53 PM 37.9 °F 34.4 °F 28.0 °F 68% 30.01 in 10.0 mi SSE 4.6 mph - N/A   Clear
1:53 PM 41.0 °F 35.2 °F 28.9 °F 62% 29.99 in 10.0 mi SSE 9.2 mph - N/A   Clear
2:53 PM 42.1 °F 39.2 °F 30.0 °F 62% 30.01 in 10.0 mi SSE 4.6 mph - N/A   Clear
3:53 PM 39.9 °F 37.8 °F 30.0 °F 68% 30.01 in 10.0 mi SSE 3.5 mph - N/A   Clear
4:53 PM 37.9 °F 32.7 °F 28.9 °F 70% 30.01 in 10.0 mi SSE 6.9 mph - N/A   Clear
5:53 PM 37.0 °F 33.3 °F 28.9 °F 73% 30.01 in 10.0 mi SE 4.6 mph - N/A   Clear
6:53 PM 35.1 °F 28.6 °F 28.9 °F 78% 30.01 in 10.0 mi SE 8.1 mph - N/A   Partly Cloudy
7:53 PM 34.0 °F - 28.0 °F 79% 30.03 in 10.0 mi Calm Calm - N/A   Clear
8:53 PM 34.0 °F 28.8 °F 28.9 °F 82% 30.01 in 10.0 mi SE 5.8 mph - N/A   Clear
9:53 PM 33.1 °F - 28.0 °F 82% 30.02 in 10.0 mi Calm Calm - N/A   Mostly Cloudy
10:53 PM 33.1 °F 28.7 °F 28.9 °F 85% 30.02 in 10.0 mi South 4.6 mph - N/A   Clear
11:53 PM 34.0 °F - 28.9 °F 82% 30.03 in 10.0 mi Calm Calm - N/A   Overcast